This is the latest recevied weather packets stored in our database for station/object N5COP-13. If no packets are shown the sender has not sent any weather packets the latest 10 day(s).
| Time | Temp. | Humidity | Pressure | Rain* | Wind** | Luminosity | Snow |
|---|---|---|---|---|---|---|---|
| 1778200169 | 23.89° C | 24% | 1013.3 hPa | 0 mm | - | 90 W/m² | - |
| 1778199865 | 23.89° C | 24% | 1013.4 hPa | 0 mm | - | 99 W/m² | - |
| 1778199561 | 23.89° C | 24% | 1013.4 hPa | 0 mm | - | 111 W/m² | - |
| 1778199258 | 23.89° C | 24% | 1013.5 hPa | 0 mm | - | 127 W/m² | - |
| 1778198954 | 23.89° C | 23% | 1013.6 hPa | 0 mm | - | 142 W/m² | - |
| 1778198650 | 23.89° C | 23% | 1013.4 hPa | 0 mm | - | 158 W/m² | - |
| 1778198347 | 23.89° C | 23% | 1013.6 hPa | 0 mm | - | 173 W/m² | - |
| 1778198044 | 23.89° C | 24% | 1013.3 hPa | 0 mm | - | 185 W/m² | - |
| 1778197741 | 24.44° C | 23% | 1013.6 hPa | 0 mm | - | 206 W/m² | - |
| 1778197437 | 23.89° C | 23% | 1013.6 hPa | 0 mm | - | 222 W/m² | - |
| 1778197134 | 23.89° C | 24% | 1013.5 hPa | 0 mm | - | 237 W/m² | - |
| 1778196831 | 23.89° C | 23% | 1013.9 hPa | 0 mm | - | 253 W/m² | - |
| 1778196530 | 23.89° C | 23% | 1013.6 hPa | 0 mm | - | 268 W/m² | - |
| 1778196225 | 24.44° C | 23% | 1013.7 hPa | 0 mm | - | 281 W/m² | - |
| 1778195924 | 23.89° C | 23% | 1013.9 hPa | 0 mm | - | 297 W/m² | - |
| 1778195620 | 24.44° C | 23% | 1013.7 hPa | 0 mm | - | 317 W/m² | - |
| 1778195316 | 23.89° C | 24% | 1014 hPa | 0 mm | - | 335 W/m² | - |
| 1778195014 | 23.89° C | 24% | 1014.1 hPa | 0 mm | - | 354 W/m² | - |
| 1778194713 | 23.89° C | 24% | 1013.9 hPa | 0 mm | - | 374 W/m² | - |
| 1778194409 | 23.89° C | 24% | 1014 hPa | 0 mm | - | 391 W/m² | - |
| 1778194106 | 24.44° C | 24% | 1014 hPa | 0 mm | - | 407 W/m² | - |
| 1778193803 | 23.89° C | 24% | 1014 hPa | 0 mm | - | 422 W/m² | - |
| 1778193499 | 23.89° C | 25% | 1014.1 hPa | 0 mm | - | 436 W/m² | - |
| 1778193195 | 23.89° C | 24% | 1014.3 hPa | 0 mm | - | 453 W/m² | - |
| 1778192893 | 23.89° C | 25% | 1014.3 hPa | 0 mm | - | 468 W/m² | - |
* Rain latest hour (hover to see other rain measurements)
** Current wind speed in m/s (hover to see current wind gust speed)